Disclaimer

Please do not use the information listed here in-flight or in-navigation, as they are not provided to us by the airports but are provided by volunteers, so they might be outdated.

Search


Regions


Airport information page

Radio informations:
ROUEN TWR - 120.2 MHz
Automatic Terminal Information Service (ATIS) - 120.725 MHz
ROUEN APP - 118.575 MHz

Airport informations:
Latitude: 49° 23' 03.02" N
Longitude: 001° 10' 29.28" E
Elevation: 512 feet - 156 meters
Operating hours: Remarks
Operating agency: Civil government, landing fees and diplomatic clearance may be required
Timezone: UTC+1(+2DT) - Last Sunday in March to last Sunday in October
Fuel: Jet A1, without icing nhibitor.

100/130 MIL Spec, low lead, aviation gasoline (BLUE)

Runway information:
04/22 - 5577 x 148 feet< - >1700 x 45 meters

Recent METARs:
LFOP 212130Z AUTO 17006KT 6000 NSC M02/M04 Q1017 NOSIG
LFOP 212200Z AUTO 16006KT 6000 NSC M02/M04 Q1017
LFOP 212230Z AUTO 16006KT 5000 BR NSC M02/M04 Q1016

Airport on the map: